GW5592 Weather Reports


time (UTC)temp
C
wind
direction
speed
KPH
gust
KPH
rain 1hr
cm
rain 24hr
cm
rain mn
cm
humidity
%
barometer
mb
20260510234509 12 223 0.0 3.2 0.00 0.00 0.00 76 1017.8
20260510234005 12 225 1.6 3.2 0.00 0.00 0.00 75 1017.8
20260510233505 12 183 1.6 3.2 0.00 0.00 0.00 75 1017.9
20260510233014 12 238 0.0 0.0 0.00 0.00 0.00 74 1017.9
20260510232507 12 238 0.0 0.0 0.00 0.00 0.00 75 1017.9
20260510232006 12 238 0.0 3.2 0.00 0.00 0.00 73 1017.8
20260510231522 12 238 0.0 3.2 0.00 0.00 0.00 73 1017.8
20260510231010 12 241 0.0 3.2 0.00 0.00 0.00 74 1017.9
20260510230508 12 205 0.0 0.0 0.00 0.00 0.00 75 1017.8
20260510230022 12 205 0.0 0.0 0.00 0.00 0.00 74 1017.6
20260510225513 12 203 0.0 3.2 0.00 0.00 0.00 74 1017.8
20260510225011 12 202 0.0 3.2 0.00 0.00 0.00 74 1017.7
20260510224531 12 195 1.6 3.2 0.00 0.00 0.00 74 1017.7
20260510224003 12 249 0.0 3.2 0.00 0.00 0.00 74 1017.6
20260510223503 12 189 0.0 3.2 0.00 0.00 0.00 75 1017.7
20260510223014 12 232 0.0 3.2 0.00 0.00 0.00 77 1017.7
20260510222511 12 188 0.0 1.6 0.00 0.00 0.00 76 1017.6
20260510222009 12 188 0.0 3.2 0.00 0.00 0.00 75 1017.7
20260510221520 12 198 0.0 3.2 0.00 0.00 0.00 74 1017.7
20260510221006 12 208 0.0 3.2 0.00 0.00 0.00 75 1017.8
20260510220506 12 172 0.0 3.2 0.00 0.00 0.00 75 1017.5
20260510220023 12 173 0.0 3.2 0.00 0.00 0.00 76 1017.5
20260510215506 12 170 0.0 1.6 0.00 0.00 0.00 75 1017.6
20260510215006 12 229 0.0 6.4 0.00 0.00 0.00 75 1017.6
20260510214526 12 246 1.6 6.4 0.00 0.00 0.00 75 1017.5
20260510214008 12 221 1.6 4.8 0.00 0.00 0.00 75 1017.5
20260510213517 12 289 1.6 6.4 0.00 0.00 0.00 75 1017.5
20260510213028 12 275 3.2 6.4 0.00 0.00 0.00 74 1017.6
20260510212503 13 279 3.2 11.3 0.00 0.00 0.00 74 1017.6
20260510212004 13 250 4.8 11.3 0.00 0.00 0.00 74 1017.7
20260510211524 13 254 3.2 12.9 0.00 0.00 0.00 74 1017.7
20260510211013 13 246 4.8 12.9 0.00 0.00 0.00 74 1017.7
20260510210507 13 296 4.8 14.5 0.00 0.00 0.00 74 1017.8
20260510210021 13 250 8.0 14.5 0.00 0.00 0.00 73 1017.7
20260510205506 13 249 6.4 9.7 0.00 0.00 0.00 73 1017.6
20260510205007 13 221 4.8 9.7 0.00 0.00 0.00 73 1017.6
20260510204524 13 251 4.8 8.0 0.00 0.00 0.00 73 1017.4
20260510204006 13 245 4.8 11.3 0.00 0.00 0.00 72 1017.4
20260510203510 13 232 4.8 11.3 0.00 0.00 0.00 72 1017.4
20260510203036 13 267 6.4 12.9 0.00 0.00 0.00 72 1017.3
20260510202510 13 261 4.8 12.9 0.00 0.00 0.00 72 1017.1
20260510202008 13 283 4.8 12.9 0.00 0.00 0.00 72 1017.0
20260510201525 13 253 3.2 12.9 0.00 0.00 0.00 72 1017.0
20260510201007 13 243 3.2 9.7 0.00 0.00 0.00 72 1016.8
20260510200509 13 258 1.6 6.4 0.00 0.00 0.00 72 1016.9
20260510200018 14 256 3.2 11.3 0.00 0.00 0.00 72 1016.9
20260510195510 14 251 4.8 11.3 0.00 0.00 0.00 72 1016.9
20260510195010 14 294 3.2 6.4 0.00 0.00 0.00 72 1016.8
20260510194529 14 261 3.2 9.7 0.00 0.00 0.00 71 1016.8
20260510194007 14 284 3.2 9.7 0.00 0.00 0.00 72 1017.0
20260510193507 14 280 3.2 8.0 0.00 0.00 0.00 71 1017.0
20260510193024 14 293 4.8 8.0 0.00 0.00 0.00 71 1017.0
20260510192507 14 254 3.2 6.4 0.00 0.00 0.00 71 1016.7
20260510192012 14 241 3.2 11.3 0.00 0.00 0.00 71 1016.7
20260510191528 14 245 4.8 11.3 0.00 0.00 0.00 71 1016.6
20260510191011 14 227 3.2 6.4 0.00 0.00 0.00 70 1016.6
20260510190510 14 263 3.2 8.0 0.00 0.00 0.00 70 1016.7
20260510190014 14 252 4.8 8.0 0.00 0.00 0.00 70 1016.6
20260510185506 14 174 3.2 8.0 0.00 0.00 0.00 69 1016.6
20260510185007 15 231 1.6 8.0 0.00 0.00 0.00 69 1016.5
20260510184526 15 240 3.2 11.3 0.00 0.00 0.00 68 1016.5
20260510184010 15 234 4.8 11.3 0.00 0.00 0.00 69 1016.5
20260510183511 15 269 3.2 14.5 0.00 0.00 0.00 68 1016.5
20260510183035 15 281 6.4 14.5 0.00 0.00 0.00 67 1016.4
20260510182509 15 252 6.4 16.1 0.00 0.00 0.00 67 1016.5
20260510182010 15 252 1.6 16.1 0.00 0.00 0.00 67 1016.5
20260510181527 15 264 6.4 24.1 0.00 0.00 0.00 67 1016.4
20260510181008 15 292 4.8 25.7 0.00 0.00 0.00 66 1016.3
20260510180513 15 246 9.7 25.7 0.00 0.00 0.00 66 1016.3
20260510180044 15 264 6.4 24.1 0.00 0.00 0.00 66 1016.4
20260510175509 16 270 9.7 24.1 0.00 0.00 0.00 65 1016.2
20260510175010 16 225 8.0 20.9 0.00 0.00 0.00 62 1016.0
20260510174519 16 277 11.3 20.9 0.00 0.00 0.00 57 1015.9
20260510174009 17 205 6.4 16.1 0.00 0.00 0.00 57 1015.7
20260510173507 17 269 4.8 29.0 0.00 0.00 0.00 56 1015.8
20260510173025 17 223 8.0 29.0 0.00 0.00 0.00 56 1015.7
20260510172509 17 206 8.0 24.1 0.00 0.00 0.00 56 1015.7
20260510172015 17 213 8.0 24.1 0.00 0.00 0.00 56 1015.6
20260510171525 17 207 6.4 22.5 0.00 0.00 0.00 55 1015.6
20260510171008 17 232 9.7 22.5 0.00 0.00 0.00 55 1015.7
20260510170507 17 246 14.5 22.5 0.00 0.00 0.00 55 1015.7
20260510170029 18 211 6.4 19.3 0.00 0.00 0.00 56 1015.7
20260510165510 18 203 9.7 22.5 0.00 0.00 0.00 55 1015.8
20260510165006 17 211 6.4 27.4 0.00 0.00 0.00 56 1015.8
20260510164543 17 219 11.3 25.7 0.00 0.00 0.00 57 1015.8
20260510164009 17 221 6.4 20.9 0.00 0.00 0.00 58 1015.7
20260510163510 17 230 8.0 20.9 0.00 0.00 0.00 58 1015.7
20260510163021 17 229 9.7 19.3 0.00 0.00 0.00 59 1015.8
20260510162511 17 197 4.8 29.0 0.00 0.00 0.00 59 1015.9
20260510162010 17 148 6.4 29.0 0.00 0.00 0.00 60 1015.9
20260510161528 17 200 9.7 20.9 0.00 0.00 0.00 59 1015.8
20260510161012 17 245 8.0 20.9 0.00 0.00 0.00 61 1015.9
20260510160509 16 238 9.7 27.4 0.00 0.00 0.00 60 1015.9
20260510160035 16 217 12.9 27.4 0.00 0.00 0.00 59 1015.9
20260510155510 17 203 14.5 24.1 0.00 0.05 0.00 60 1015.9
20260510155010 17 250 9.7 24.1 0.00 0.05 0.00 62 1015.9
20260510154530 17 226 9.7 24.1 0.00 0.05 0.00 61 1016.0
20260510154011 17 224 9.7 20.9 0.00 0.05 0.00 60 1015.9
20260510153508 17 201 6.4 24.1 0.00 0.05 0.00 61 1015.9
20260510153031 16 265 12.9 24.1 0.00 0.05 0.00 61 1016.1
20260510152513 17 153 9.7 17.7 0.00 0.05 0.00 61 1016.0
20260510152007 17 252 11.3 19.3 0.00 0.05 0.00 59 1016.0
20260510151529 17 259 14.5 24.1 0.00 0.05 0.00 59 1015.9
20260510151009 17 240 12.9 24.1 0.00 0.08 0.00 59 1016.0
20260510150507 17 296 9.7 20.9 0.00 0.08 0.00 59 1015.9
20260510150026 17 298 9.7 25.7 0.00 0.10 0.00 59 1015.9
20260510145509 17 206 12.9 27.4 0.00 0.10 0.00 57 1015.9
20260510145010 17 246 11.3 27.4 0.00 0.10 0.00 58 1016.0
20260510144527 17 240 14.5 27.4 0.00 0.10 0.00 58 1016.2
20260510144010 17 227 12.9 22.5 0.00 0.10 0.00 56 1016.1
20260510143511 17 234 11.3 24.1 0.00 0.10 0.00 57 1016.0
20260510143038 17 231 9.7 22.5 0.00 0.10 0.00 55 1016.0
20260510142510 17 232 9.7 22.5 0.00 0.10 0.00 56 1016.0
20260510142017 17 275 4.8 20.9 0.00 0.13 0.00 58 1016.0
20260510141530 16 255 9.7 29.0 0.00 0.13 0.00 57 1016.1
20260510141008 17 190 16.1 29.0 0.00 0.13 0.00 56 1016.2
20260510140511 17 214 9.7 24.1 0.00 0.13 0.00 57 1016.2
20260510140027 17 232 11.3 32.2 0.00 0.13 0.00 56 1016.3
20260510135509 16 275 12.9 32.2 0.00 0.13 0.00 56 1016.4
20260510135008 17 225 12.9 32.2 0.00 0.13 0.00 56 1016.3
20260510134528 17 221 16.1 29.0 0.00 0.13 0.00 56 1016.2
20260510134010 17 259 6.4 20.9 0.00 0.13 0.00 56 1016.2
20260510133511 17 217 8.0 22.5 0.00 0.13 0.00 56 1016.4
20260510133029 16 244 11.3 24.1 0.00 0.13 0.00 57 1016.2
20260510132511 16 277 9.7 27.4 0.00 0.13 0.00 57 1016.2
20260510132010 17 215 14.5 27.4 0.00 0.13 0.00 57 1016.3
20260510131528 17 192 11.3 27.4 0.00 0.13 0.00 56 1016.2
20260510131009 17 190 14.5 27.4 0.00 0.13 0.00 56 1016.3
20260510130509 17 228 12.9 27.4 0.00 0.13 0.00 56 1016.3
20260510130029 17 295 12.9 29.0 0.00 0.13 0.00 55 1016.3
20260510125511 16 211 12.9 30.6 0.00 0.13 0.00 56 1016.3
20260510125010 16 210 17.7 30.6 0.00 0.13 0.00 55 1016.3
20260510124535 17 227 16.1 30.6 0.00 0.13 0.00 55 1016.3
20260510124007 17 196 9.7 30.6 0.00 0.13 0.00 56 1016.3
20260510123507 17 192 9.7 27.4 0.00 0.13 0.00 56 1016.3
20260510123012 16 217 12.9 24.1 0.00 0.13 0.00 58 1016.3
20260510122505 16 224 14.5 25.7 0.00 0.13 0.00 56 1016.2
20260510122006 16 227 14.5 27.4 0.00 0.13 0.00 56 1016.3
20260510121517 16 233 12.9 27.4 0.00 0.15 0.00 56 1016.3
20260510121008 16 240 11.3 24.1 0.00 0.18 0.00 57 1016.3
20260510120508 16 225 11.3 20.9 0.00 0.18 0.00 57 1016.4
20260510120028 16 269 9.7 27.4 0.00 0.18 0.00 58 1016.4
20260510115507 16 219 14.5 27.4 0.00 0.18 0.00 56 1016.4
20260510115011 16 213 12.9 33.8 0.00 0.18 0.00 57 1016.4
20260510114526 16 245 12.9 33.8 0.00 0.18 0.00 57 1016.5
20260510114015 16 189 14.5 32.2 0.00 0.18 0.00 57 1016.5
20260510113510 16 202 11.3 25.7 0.00 0.18 0.00 58 1016.4
20260510113014 16 159 14.5 25.7 0.00 0.18 0.00 58 1016.5
20260510112505 17 212 14.5 24.1 0.00 0.18 0.00 58 1016.6
20260510112006 17 208 11.3 24.1 0.00 0.18 0.00 58 1016.5
20260510111515 17 211 8.0 29.0 0.00 0.18 0.00 58 1016.7
20260510111007 17 240 12.9 29.0 0.00 0.18 0.00 58 1016.7
20260510110510 17 215 8.0 19.3 0.00 0.18 0.00 59 1016.8
20260510110019 17 235 9.7 20.9 0.00 0.18 0.00 58 1016.9
20260510105507 17 225 8.0 27.4 0.00 0.18 0.00 58 1016.9
20260510105007 17 220 8.0 27.4 0.00 0.18 0.00 58 1017.0
20260510104527 17 261 9.7 25.7 0.00 0.18 0.00 58 1017.1
20260510104007 17 218 14.5 25.7 0.00 0.18 0.00 56 1017.0
20260510103510 17 222 12.9 25.7 0.00 0.18 0.00 57 1017.0
20260510103033 17 225 11.3 25.7 0.00 0.18 0.00 57 1016.9
20260510102511 17 260 14.5 27.4 0.00 0.18 0.00 57 1017.0
20260510102010 17 215 9.7 27.4 0.00 0.18 0.00 1016.9
20260510101513 16 216 11.3 17.7 0.00 0.18 0.00 1017.0
20260510101008 16 208 4.8 22.5 0.00 0.18 0.00 1017.0
20260510100511 16 229 12.9 22.5 0.00 0.18 0.00 60 1017.2
20260510100019 16 259 8.0 19.3 0.00 0.18 0.00 60 1017.1
20260510095508 16 224 11.3 20.9 0.00 0.18 0.00 59 1017.0
20260510095006 17 269 11.3 20.9 0.00 0.18 0.00 57 1017.0
20260510094523 17 250 8.0 22.5 0.00 0.18 0.00 1016.8
20260510094008 16 175 8.0 22.5 0.00 0.18 0.00 63 1016.8
20260510093507 16 215 9.7 20.9 0.00 0.18 0.00 63 1016.7
20260510093004 15 193 8.0 22.5 0.00 0.18 0.00 62 1016.9
20260510092504 15 251 9.7 22.5 0.00 0.18 0.00 63 1017.0
20260510092009 15 253 8.0 24.1 0.00 0.18 0.00 62 1017.0
20260510091525 15 225 12.9 24.1 0.00 0.18 0.00 1016.9
20260510091003 15 241 9.7 22.5 0.00 0.18 0.00 1016.9
20260510090503 16 241 6.4 14.5 0.00 0.18 0.00 1016.9
20260510090015 15 213 8.0 17.7 0.00 0.18 0.00 1016.8
20260510085506 16 229 9.7 16.1 0.00 0.18 0.00 62 1016.8
20260510085007 16 263 4.8 16.1 0.00 0.18 0.00 62 1016.8
20260510084522 15 221 8.0 24.1 0.00 0.18 0.00 65 1016.8
20260510084006 16 255 16.1 24.1 0.00 0.18 0.00 62 1017.0
20260510083510 16 277 6.4 16.1 0.00 0.18 0.00 63 1016.8
20260510083025 16 219 6.4 25.7 0.00 0.18 0.00 64 1016.7
20260510082509 16 215 8.0 25.7 0.00 0.18 0.00 64 1016.8
20260510082004 15 248 8.0 22.5 0.00 0.18 0.00 65 1016.9
20260510081522 15 209 11.3 22.5 0.00 0.18 0.00 64 1016.9
20260510081006 15 271 8.0 22.5 0.00 0.18 0.00 65 1016.8
20260510080507 15 224 6.4 16.1 0.00 0.18 0.00 65 1016.8
20260510080013 15 167 8.0 20.9 0.00 0.18 0.00 66 1016.9
20260510075506 14 249 11.3 22.5 0.00 0.18 0.00 66 1017.0
20260510075007 14 243 9.7 22.5 0.00 0.18 0.00 66 1017.1
20260510074518 14 279 9.7 20.9 0.00 0.18 0.00 67 1017.1
20260510074011 14 231 8.0 19.3 0.00 0.18 0.00 67 1017.0
20260510073513 13 273 8.0 19.3 0.00 0.18 0.00 69 1017.0
20260510073032 13 258 9.7 17.7 0.00 0.18 0.00 68 1017.0
20260510072507 13 247 6.4 17.7 0.00 0.18 0.00 69 1017.0
20260510072008 12 261 6.4 16.1 0.00 0.18 0.00 69 1017.0
20260510071534 12 246 9.7 17.7 0.00 0.18 0.00 70 1016.9
20260510071008 12 228 6.4 17.7 0.00 0.18 0.00 71 1016.9
20260510070506 11 240 9.7 16.1 0.00 0.18 0.00 74 1016.9
20260510070014 11 210 4.8 9.7 0.00 0.18 0.00 77 1016.9
20260510065506 10 196 0.0 8.0 0.00 0.18 0.00 80 1016.8
20260510065008 10 221 0.0 3.2 0.00 0.18 0.00 81 1016.7
20260510064542 10 229 0.0 3.2 0.00 0.18 0.00 81 1016.7
20260510064005 10 238 0.0 3.2 0.00 0.18 0.00 81 1016.6
20260510063506 9 209 0.0 0.0 0.00 0.18 0.00 81 1016.5
20260510063025 9 266 0.0 0.0 0.00 0.18 0.00 81 1016.5
20260510062509 9 306 0.0 3.2 0.00 0.18 0.00 81 1016.5
20260510062010 8 306 0.0 3.2 0.00 0.18 0.00 81 1016.5
20260510061535 8 305 0.0 3.2 0.00 0.18 0.00 82 1016.7
20260510061010 8 281 0.0 3.2 0.00 0.20 0.00 83 1016.8
20260510060510 8 292 1.6 3.2 0.00 0.25 0.00 84 1016.7
20260510060035 7 275 0.0 3.2 0.00 0.25 0.00 84 1016.5
20260510055505 7 337 0.0 3.2 0.00 0.25 0.00 83 1016.5
20260510055004 7 331 0.0 3.2 0.00 0.25 0.00 84 1016.4
20260510054514 7 323 0.0 1.6 0.00 0.25 0.00 84 1016.3
20260510054007 7 323 0.0 3.2 0.00 0.25 0.00 85 1016.3
20260510053511 7 323 0.0 3.2 0.00 0.25 0.00 85 1016.2
20260510053016 7 36 0.0 3.2 0.00 0.25 0.00 84 1016.2
20260510052506 7 333 0.0 3.2 0.00 0.25 0.00 84 1016.1
20260510052010 7 9 0.0 3.2 0.00 0.25 0.00 84 1016.0
20260510051524 7 5 0.0 0.0 0.00 0.25 0.00 84 1016.2
20260510051011 7 5 0.0 0.0 0.00 0.25 0.00 84 1016.2
20260510050508 7 5 0.0 0.0 0.00 0.25 0.00 85 1016.2
20260510050023 7 5 0.0 0.0 0.00 0.25 0.00 85 1016.2
20260510045510 7 5 0.0 0.0 0.00 0.25 0.00 85 1016.1
20260510045015 7 5 0.0 0.0 0.00 0.25 0.00 85 1016.1
20260510044532 7 5 0.0 3.2 0.00 0.28 0.00 85 1016.1
20260510044011 7 9 0.0 3.2 0.00 0.28 0.00 85 1016.0
20260510043504 7 5 0.0 3.2 0.00 0.28 0.00 85 1015.9
20260510043016 7 352 0.0 1.6 0.00 0.28 0.00 85 1015.9
20260510042507 7 11 0.0 0.0 0.00 0.28 0.00 85 1015.9
20260510042010 7 11 0.0 0.0 0.00 0.28 0.00 85 1016.0
20260510041520 7 11 0.0 0.0 0.00 0.28 0.00 85 1016.0
20260510041008 7 15 0.0 0.0 0.00 0.28 0.00 85 1016.0
20260510040507 7 15 0.0 0.0 0.00 0.28 0.00 85 1016.2
20260510040024 7 15 0.0 0.0 0.00 0.28 0.00 85 1016.2
20260510035507 7 15 0.0 0.0 0.00 0.28 0.00 85 1016.2
20260510035009 7 15 0.0 0.0 0.00 0.28 0.00 85 1016.2
20260510034528 7 15 0.0 0.0 0.00 0.28 0.00 85 1016.3
20260510034011 7 15 0.0 1.6 0.00 0.28 0.00 85 1016.3
20260510033508 7 15 0.0 1.6 0.00 0.28 0.00 85 1016.3
20260510033027 7 352 0.0 3.2 0.00 0.28 0.00 84 1016.4
20260510032506 7 352 0.0 3.2 0.00 0.28 0.00 85 1016.4
20260510032010 7 334 0.0 0.0 0.00 0.28 0.00 84 1016.4
20260510031519 7 286 0.0 0.0 0.00 0.30 0.00 84 1016.4
20260510031011 7 286 0.0 0.0 0.00 0.33 0.00 84 1016.4
20260510030507 8 286 0.0 0.0 0.00 0.33 0.00 84 1016.4
20260510030024 8 286 0.0 0.0 0.00 0.33 0.00 84 1016.4
20260510025508 8 286 0.0 0.0 0.00 0.33 0.00 84 1016.4
20260510025008 8 286 0.0 0.0 0.00 0.36 0.00 84 1016.4
20260510024532 8 286 0.0 0.0 0.00 0.36 0.00 84 1016.3
20260510024010 8 286 0.0 0.0 0.00 0.36 0.00 84 1016.4
20260510023508 7 286 0.0 0.0 0.00 0.36 0.00 84 1016.4
20260510023028 7 286 0.0 0.0 0.00 0.36 0.00 84 1016.4
20260510022511 7 286 0.0 0.0 0.00 0.36 0.00 84 1016.4
20260510022011 7 286 0.0 0.0 0.00 0.36 0.00 84 1016.4
20260510021516 7 286 0.0 0.0 0.00 0.36 0.00 84 1016.4
20260510021008 7 286 0.0 0.0 0.00 0.36 0.00 83 1016.4
20260510020507 7 286 0.0 0.0 0.00 0.36 0.00 83 1016.4
20260510020022 8 286 0.0 0.0 0.00 0.36 0.00 83 1016.3
20260510015509 8 286 0.0 0.0 0.00 0.36 0.00 83 1016.3
20260510015010 7 286 0.0 0.0 0.00 0.36 0.00 83 1016.3
20260510014528 8 286 0.0 0.0 0.00 0.36 0.00 82 1016.3
20260510014007 8 286 0.0 0.0 0.00 0.36 0.00 82 1016.3
20260510013507 8 286 0.0 0.0 0.00 0.36 0.00 82 1016.3
20260510013028 8 286 0.0 0.0 0.00 0.36 0.00 82 1016.3
20260510012509 8 286 0.0 0.0 0.00 0.36 0.00 82 1016.3
20260510012010 9 286 0.0 0.0 0.00 0.36 0.00 82 1016.3
20260510011527 9 286 0.0 0.0 0.00 0.36 0.00 82 1016.4
20260510011013 9 286 0.0 0.0 0.00 0.36 0.00 82 1016.4
20260510010510 9 286 0.0 0.0 0.00 0.36 0.00 82 1016.5
20260510010017 8 286 0.0 0.0 0.00 0.36 0.00 82 1016.6
20260510005508 9 294 0.0 0.0 0.00 0.36 0.00 82 1016.6
20260510005006 8 294 0.0 0.0 0.00 0.36 0.00 82 1016.5
20260510004504 8 294 0.0 0.0 0.00 0.36 0.00 81 1016.5
20260510004006 9 294 0.0 0.0 0.00 0.36 0.00 81 1016.7
20260510003505 10 294 0.0 0.0 0.00 0.36 0.00 81 1016.8
20260510003008 10 294 0.0 0.0 0.00 0.36 0.00 81 1016.8
20260510002504 10 294 0.0 0.0 0.00 0.36 0.00 81 1016.8
20260510002006 10 294 0.0 0.0 0.00 0.36 0.00 80 1016.8
20260510001511 10 294 0.0 0.0 0.00 0.36 0.00 80 1016.8
20260510001005 10 294 0.0 0.0 0.00 0.36 0.00 80 1016.8
20260510000506 10 294 0.0 0.0 0.00 0.36 0.00 80 1016.8
20260510000014 10 273 0.0 0.0 0.00 0.36 0.00 79 1016.8
20260509235506 10 269 0.0 3.2 0.00 0.36 0.00 78 1016.9
20260509235012 10 269 0.0 3.2 0.00 0.36 0.00 78 1017.0